Location: Ciserano
(45.5833°N, 9.6000°E)
Time: 10:08:42
(UTC+00:00)

COSMOS 2455 - Pass Details

Date: 29 November 2020
Orbit: 900 x 909 km, 67.1° (Epoch: 26 January)

Event Time Altitude Azimuth Distance (km) Brightness Sun altitude
Rises 06:01:03 0° 222° (SW) 3,518 5.7 -6.8°
Reaches altitude 10° 06:03:35 10° 226° (SW) 2,582 5.0 -6.4°
Maximum altitude 06:09:31 61° 306° (NW) 1,022 2.9 -5.5°
Drops below altitude 10° 06:15:30 10° 27° (NNE) 2,602 5.3 -4.5°
Sets 06:18:04 0° 31° (NNE) 3,548 6.0 -4.1°
